Regional Weather Roundup
Issued by NWS

Home | Current Version | Previous Version | Graphics & Text | Print | Product List | Glossary On
Versions: 1 2 3 4 5 6 7 8 9 10 11 12 13 14 15 16 17 18 19 20 21 22 23 24 25 26 27 28
000
ASUS45 KSLC 202010
RWRUT

UTAH REGIONAL WEATHER ROUNDUP
NATIONAL WEATHER SERVICE SALT LAKE CITY UT
200 PM MDT SUN MAY 20 2018

UTZ001>011-023>025-202100-

NORTHERN UTAH

CITY           SKY/WX    TMP DP  RH WIND       PRES   REMARKS
BRIGHAM CITY   SUNNY     77  33  20 S6        29.92F
HILL AFB       MOSUNNY   74  40  28 N5        29.92F
LOGAN          MOSUNNY   73  48  41 VRB3      29.92F
OGDEN          MOSUNNY   77  39  25 VRB7      29.90F
SALT LAKE CITY TSTM      78  33  19 W15G22    29.88F
TOOELE VALLEY  PTSUNNY   70  45  40 N8        29.91F
WENDOVER       MOSUNNY   74  40  29 VRB7      29.89F
HEBER CITY     MOCLDY    64  36  34 SE17      29.97S
WEST JORDAN    PTSUNNY   71  47  42 W15G21    29.92S

$$

UTZ011>015-024>027-202100-

CENTRAL/NORTHEAST UTAH

CITY           SKY/WX    TMP DP  RH WIND       PRES   REMARKS
PROVO AIRPORT  PTSUNNY   75  46  35 SE12      29.93F
MOAB/CANYONLAN MOSUNNY   81  28  14 VRB6G21   29.88F
DELTA          MOSUNNY   75  32  20 CALM      29.93F
PRICE          PTSUNNY   74  33  22 VRB6G16   29.98F
RICHFIELD      PTSUNNY   57  45  62 E7G14     30.06R HAZE
ROOSEVELT      MOSUNNY   73  36  25 S5        30.01F
VERNAL         SUNNY     74  37  26 VRB3      29.98F

$$

UTZ013>016-019>022-027-202100-

SOUTHERN UTAH

CITY           SKY/WX    TMP DP  RH WIND       PRES   REMARKS
BRYCE CANYON   RAIN      52  39  61 SW22G31   30.10R
CEDAR CITY     PTSUNNY   78  28  16 SW12G26   29.93F
MILFORD        MOSUNNY   77  34  21 S13G24    29.91F
ST GEORGE      CLOUDY    86  34  15 W13       29.81F
HANKSVILLE     CLOUDY    79  30  17 W8        29.92F
KANAB          SUNNY     81  23  12 S12G23    29.96F
BLANDING         N/A     78  24  13 SE20G32   30.06F

$$

REGIONAL REPORTS     COLORADO/ARIZONA

CITY           SKY/WX    TMP DP  RH WIND       PRES   REMARKS
CRAIG, CO      MOSUNNY   70  44  39 W9        30.06F
GRAND JUNCTION MOSUNNY   77  37  23 W6        29.92F
RIFLE, CO      PTSUNNY   73  33  23 SE9       29.98F
MONTROSE, CO   CLOUDY    70  22  16 SW32G48   30.04S HAZE
CORTEZ, CO     PTSUNNY   78  17  10 MISG      30.02F
COLORADO CITY    N/A     81  27  13 SW10G21   29.95F
PAGE, AZ       PTSUNNY   81  33  17 W12G24    29.88F
GRAND CANYON   MOSUNNY   72   6   7 SW10G21   30.07F
KINGMAN, AZ    MOSUNNY   86  30  13 SW20G28   29.89F
FLAGSTAFF, AZ  SUNNY     67  20  16 S6G24     30.10F

$$

REGIONAL REPORTS    NEVADA/IDAHO/WYOMING

CITY           SKY/WX    TMP DP  RH WIND       PRES   REMARKS
LAS VEGAS, NV  PTSUNNY   89  29  11 E6        29.77F
ELY, NY        CLOUDY    67  27  22 SE15      29.98F
ELKO, NV       MOSUNNY   71  43  36 SW7       29.91F
POCATELLO, ID  PTSUNNY   73  45  36 N7        29.92F
BURLEY, ID     TSTM      69  44  40 E13       29.87F
FORT BRIDGER,    N/A     67  38  35 E10       30.12F
EVANSTON, WY   MOSUNNY   63  40  42 E14       30.07F
ROCK SPRINGS,  SUNNY     64  35  34 NW5       30.09F
KEMMERER, WY   SUNNY     61  36  39 CALM      30.12F

$$




USA.gov is the U.S. government's official web portal to all federal, state and local government web resources and services.